Regional Weather Roundup
Issued by NWS

Home | Current Version | Previous Version | Graphics & Text | Print | Product List | Glossary On
Versions: 1 2 3 4 5 6 7 8 9 10 11 12 13 14 15 16 17 18 19 20 21 22 23 24 25 26 27 28 29 30 31 32 33 34 35 36 37 38 39 40 41 42 43 44 45 46 47 48 49 50
830
ASUS43 KFSD 180010
RWRSD

WEATHER ROUNDUP FOR SOUTH DAKOTA
NATIONAL WEATHER SERVICE SIOUX FALLS SD
600 PM CST WED JAN 17 2018

NOTE: "FAIR" INDICATES FEW OR NO CLOUDS BELOW 12,000 FEET WITH NO
SIGNIFICANT WEATHER AND/OR OBSTRUCTIONS TO VISIBILITY.


SDZ001>005-009-010-012>017-180100-
NORTHWEST AND NORTH CENTRAL SOUTH DAKOTA

CITY           SKY/WX    TMP DP  RH WIND       PRES   REMARKS
BUFFALO          N/A     28  20  71 W10       30.06F WCI  19
FAITH            N/A     31  23  72 W9        30.15F WCI  23
MOBRIDGE       CLEAR     35  25  66 NW12      30.09F WCI  27
$$

SDZ012>016-024>037-041>051-057-063-072>074-180100-
SOUTHWEST AND SOUTH CENTRAL SOUTH DAKOTA

CITY           SKY/WX    TMP DP  RH WIND       PRES   REMARKS
RAPID CTY ARPT CLEAR     35  20  54 S6        30.18F
PIERRE         CLEAR     36  25  64 W10       30.16S
CUSTER         CLEAR     36  19  50 SW6       30.17F
ELLSWORTH AFB  CLEAR     39  21  49 S7        30.17F
PHILIP         CLEAR     36  27  69 W7        30.19F
PINE RIDGE     CLEAR     33  21  61 S5        30.22F WCI  29
SPEARFISH        N/A     36  21  55 S7        30.16F
WINNER         FAIR      35  26  69 SW10      30.19F WCI  27
$$

SDZ004>011-016>023-039-040-180100-
NORTHEAST SOUTH DAKOTA

CITY           SKY/WX    TMP DP  RH WIND       PRES   REMARKS
ABERDEEN       CLEAR     27  21  78 SW9       30.11S WCI  18
WATERTOWN      CLEAR     24  17  74 SW8       30.11R WCI  15
BROOKINGS      CLOUDY    24  17  74 SW8       30.14F WCI  15
SISSETON         N/A     33  22  63 W10       30.06F WCI  25
$$

SDZ017-020-022-023-036>040-048>070-180100-
SOUTHEAST SOUTH DAKOTA

CITY           SKY/WX    TMP DP  RH WIND       PRES   REMARKS
SIOUX FALLS    CLOUDY    30  19  63 SW5       30.19R WCI  25
HURON          CLEAR     35  23  61 SW3       30.15R
CHAMBERLAIN    CLEAR     34  26  74 SW6       30.17S WCI  28
MITCHELL       CLEAR     32  22  66 SW9       30.18F WCI  24
YANKTON        CLEAR     33  17  51 W6        30.22S WCI  28
$$

ABBREVIATIONS USED IN REMARKS
   TC - TEMPERATURE IN CELSIUS
  WCI - WIND CHILL INDEX
   HX - HEAT INDEX
  VSB - VISIBILITY





USA.gov is the U.S. government's official web portal to all federal, state and local government web resources and services.